Location: Tamazert
(32.6352°N, 5.2072°W)
Time: 16:57:05
(UTC+00:00)

Transit 2A Rocket - Pass Details

Date: 06 October 2022
Orbit: 589 x 912 km, 66.7° (Epoch: 07 December)

Event Time Altitude Azimuth Distance (km) Brightness Sun altitude
Rises 15:23:12 0° 319° (NW) 3,113 8.3 30.3°
Reaches altitude 10° 15:25:44 10° 308° (NW) 2,245 7.8 29.9°
Maximum altitude 15:30:05 28° 250° (WSW) 1,429 9.1 29.1°
Drops below altitude 10° 15:34:45 10° 193° (SSW) 2,417 8.3 28.2°
Sets 15:37:36 0° 182° (S) 3,397 8.7 27.7°
